AAL3 KNZY-KTUS

Flight info

Callsign AAL3
Flight time 0h 47m
Altitude 27000
Route PGY V317 IPL/N0497F390 J18 BZA POTER TFD DINGO6
Aircraft B77W/H-SDE1E2E3FGHIJ2J3J4J5M1RWXY/LB1D1

Departure

Time 2026-05-06 16:21
Airport North Island Naval Air Station-Halsey Field (KNZY)

Arrival

Time 2026-05-06 17:09
Airport Tucson International Airport (KTUS)
Time Latitude Longitude Altitude Speed Heading
2026-05-06 16:17 32.69827 -117.21104 36 ft 5 kts 122°
2026-05-06 16:18 32.69740 -117.20940 38 ft 40 kts 122°
2026-05-06 16:18 32.69541 -117.20570 40 ft 57 kts 122°
2026-05-06 16:18 32.69346 -117.20218 40 ft 41 kts 123°
2026-05-06 16:18 32.69179 -117.20068 39 ft 23 kts 233°
2026-05-06 16:19 32.69183 -117.20155 40 ft 0 kts 305°
2026-05-06 16:19 32.69185 -117.20158 40 ft 0 kts 305°
2026-05-06 16:19 32.69187 -117.20161 40 ft 0 kts 305°
2026-05-06 16:21 32.69199 -117.20181 40 ft 27 kts 305°
2026-05-06 16:21 32.69539 -117.20817 39 ft 148 kts 304°
2026-05-06 16:21 32.70180 -117.22021 993 ft 183 kts 302°
2026-05-06 16:22 32.70720 -117.23105 2876 ft 156 kts 302°
2026-05-06 16:22 32.71167 -117.24094 4350 ft 141 kts 292°
2026-05-06 16:22 32.71126 -117.25210 5390 ft 152 kts 246°
2026-05-06 16:22 32.70317 -117.26234 5978 ft 197 kts 217°
2026-05-06 16:23 32.69034 -117.27241 6539 ft 242 kts 211°
2026-05-06 16:23 32.67335 -117.27893 7406 ft 269 kts 181°
2026-05-06 16:23 32.65379 -117.27641 8249 ft 307 kts 164°
2026-05-06 16:23 32.63288 -117.26561 9115 ft 350 kts 141°
2026-05-06 16:24 32.61502 -117.24384 10250 ft 378 kts 119°
2026-05-06 16:24 32.60516 -117.21635 11712 ft 355 kts 98°
2026-05-06 16:24 32.60254 -117.18740 13206 ft 364 kts 87°
2026-05-06 16:24 32.60334 -117.15685 14814 ft 381 kts 84°
2026-05-06 16:25 32.60461 -117.12499 16589 ft 392 kts 83°
2026-05-06 16:25 32.60590 -117.09271 18467 ft 398 kts 83°
2026-05-06 16:25 32.60722 -117.05967 20111 ft 408 kts 83°
2026-05-06 16:25 32.60854 -117.02615 21679 ft 416 kts 83°
2026-05-06 16:26 32.60988 -116.99145 23185 ft 424 kts 82°
2026-05-06 16:26 32.61148 -116.95625 24606 ft 429 kts 80°
2026-05-06 16:26 32.61509 -116.92083 25955 ft 434 kts 78°
2026-05-06 16:26 32.61903 -116.88454 26849 ft 449 kts 78°
2026-05-06 16:27 32.62306 -116.84679 27114 ft 475 kts 78°
2026-05-06 16:27 32.62724 -116.80647 27264 ft 494 kts 79°
2026-05-06 16:27 32.63134 -116.76574 28088 ft 491 kts 79°
2026-05-06 16:27 32.63531 -116.72565 29272 ft 483 kts 79°
2026-05-06 16:28 32.63927 -116.68540 30719 ft 471 kts 79°
2026-05-06 16:28 32.64303 -116.64700 32217 ft 460 kts 79°
2026-05-06 16:28 32.64672 -116.60932 33509 ft 453 kts 79°
2026-05-06 16:28 32.65037 -116.57195 34288 ft 454 kts 79°
2026-05-06 16:29 32.65395 -116.53535 34746 ft 461 kts 79°
2026-05-06 16:29 32.65765 -116.49721 35293 ft 464 kts 79°
2026-05-06 16:29 32.66139 -116.45844 35796 ft 468 kts 80°
2026-05-06 16:29 32.66512 -116.41959 36321 ft 473 kts 80°
2026-05-06 16:30 32.66885 -116.38062 36823 ft 478 kts 81°
2026-05-06 16:30 32.67015 -116.36706 36980 ft 480 kts 81°
2026-05-06 16:30 32.67659 -116.29932 37112 ft 502 kts 81°
2026-05-06 16:30 32.68056 -116.25742 37117 ft 510 kts 81°
2026-05-06 16:31 32.68851 -116.17273 37330 ft 513 kts 82°
2026-05-06 16:31 32.69238 -116.13114 38047 ft 505 kts 82°
2026-05-06 16:31 32.69622 -116.08985 38805 ft 501 kts 82°
2026-05-06 16:32 32.70008 -116.04821 39070 ft 508 kts 82°
2026-05-06 16:32 32.70399 -116.00602 39065 ft 517 kts 82°
2026-05-06 16:32 32.71194 -115.91949 39069 ft 526 kts 82°
2026-05-06 16:33 32.71993 -115.83182 39053 ft 529 kts 83°
2026-05-06 16:34 32.73175 -115.70097 39045 ft 531 kts 83°
2026-05-06 16:34 32.73960 -115.61310 39056 ft 533 kts 83°
2026-05-06 16:35 32.74746 -115.52451 39048 ft 535 kts 83°
2026-05-06 16:35 32.75078 -115.43539 39042 ft 538 kts 88°
2026-05-06 16:36 32.75287 -115.34602 39041 ft 538 kts 88°
2026-05-06 16:36 32.75492 -115.25642 39033 ft 539 kts 88°
2026-05-06 16:37 32.75691 -115.16706 39040 ft 539 kts 88°
2026-05-06 16:37 32.75887 -115.07688 39035 ft 540 kts 89°
2026-05-06 16:38 32.76076 -114.98683 39041 ft 541 kts 89°
2026-05-06 16:38 32.76258 -114.89687 39050 ft 543 kts 89°
2026-05-06 16:39 32.76435 -114.80677 39043 ft 543 kts 89°
2026-05-06 16:39 32.76605 -114.71650 39045 ft 543 kts 89°
2026-05-06 16:40 32.76770 -114.62611 39044 ft 545 kts 89°
2026-05-06 16:40 32.77160 -114.53519 39048 ft 547 kts 85°
2026-05-06 16:41 32.77810 -114.44481 39046 ft 548 kts 85°
2026-05-06 16:41 32.78443 -114.35345 39046 ft 549 kts 86°
2026-05-06 16:42 32.79057 -114.26234 39041 ft 550 kts 86°
2026-05-06 16:42 32.79659 -114.17073 39035 ft 550 kts 86°
2026-05-06 16:43 32.80249 -114.07958 39030 ft 550 kts 87°
2026-05-06 16:43 32.80829 -113.98840 39030 ft 550 kts 87°
2026-05-06 16:44 32.81401 -113.89727 39022 ft 551 kts 87°
2026-05-06 16:44 32.81966 -113.80601 39030 ft 552 kts 87°
2026-05-06 16:45 32.82532 -113.71362 39033 ft 554 kts 87°
2026-05-06 16:45 32.83090 -113.62125 39039 ft 555 kts 87°
2026-05-06 16:46 32.83642 -113.52865 39030 ft 556 kts 87°
2026-05-06 16:46 32.84189 -113.43580 39033 ft 557 kts 87°
2026-05-06 16:47 32.84731 -113.34259 39030 ft 559 kts 88°
2026-05-06 16:47 32.85264 -113.24986 39027 ft 558 kts 88°
2026-05-06 16:48 32.85790 -113.15700 39032 ft 558 kts 88°
2026-05-06 16:48 32.86312 -113.06366 39028 ft 560 kts 88°
2026-05-06 16:49 32.86826 -112.97044 39044 ft 561 kts 88°
2026-05-06 16:49 32.87336 -112.87676 39046 ft 564 kts 89°
2026-05-06 16:50 32.87839 -112.78311 39045 ft 565 kts 88°
2026-05-06 16:50 32.88340 -112.68840 39053 ft 566 kts 88°
2026-05-06 16:51 32.88831 -112.59434 39057 ft 567 kts 89°
2026-05-06 16:51 32.89314 -112.50079 39038 ft 548 kts 89°
2026-05-06 16:51 32.89545 -112.45541 38623 ft 542 kts 89°
2026-05-06 16:52 32.89774 -112.41025 38138 ft 538 kts 89°
2026-05-06 16:52 32.89997 -112.36568 37662 ft 536 kts 89°
2026-05-06 16:52 32.90218 -112.32112 37171 ft 533 kts 90°
2026-05-06 16:52 32.90437 -112.27689 36677 ft 531 kts 89°
2026-05-06 16:53 32.90652 -112.23297 36182 ft 528 kts 89°
2026-05-06 16:53 32.90860 -112.18884 35682 ft 526 kts 91°
2026-05-06 16:53 32.90749 -112.14533 35183 ft 519 kts 98°
2026-05-06 16:53 32.90387 -112.10255 34694 ft 516 kts 100°
2026-05-06 16:54 32.89994 -112.05965 34198 ft 514 kts 100°
2026-05-06 16:54 32.89534 -112.01704 33697 ft 509 kts 105°
2026-05-06 16:54 32.88643 -111.97671 33217 ft 500 kts 114°
2026-05-06 16:54 32.87240 -111.93828 32737 ft 490 kts 124°
2026-05-06 16:55 32.85418 -111.90408 32254 ft 480 kts 133°
2026-05-06 16:55 32.83241 -111.87440 31707 ft 468 kts 142°
2026-05-06 16:55 32.80767 -111.84917 30996 ft 461 kts 149°
2026-05-06 16:55 32.78181 -111.82623 30283 ft 461 kts 150°
2026-05-06 16:56 32.75570 -111.80357 29541 ft 461 kts 150°
2026-05-06 16:56 32.72946 -111.78114 28790 ft 460 kts 150°
2026-05-06 16:56 32.70298 -111.75872 28021 ft 460 kts 150°
2026-05-06 16:56 32.67660 -111.73655 27256 ft 460 kts 150°
2026-05-06 16:57 32.65031 -111.71459 26501 ft 459 kts 150°
2026-05-06 16:57 32.62396 -111.69267 25754 ft 458 kts 150°
2026-05-06 16:57 32.59743 -111.67069 24990 ft 457 kts 150°
2026-05-06 16:57 32.57142 -111.64894 24229 ft 457 kts 147°
2026-05-06 16:58 32.54724 -111.62324 23452 ft 461 kts 137°
2026-05-06 16:58 32.52679 -111.59375 22691 ft 463 kts 130°
2026-05-06 16:58 32.50781 -111.56241 21916 ft 463 kts 124°
2026-05-06 16:58 32.49298 -111.52859 21158 ft 464 kts 114°
2026-05-06 16:59 32.48242 -111.49271 20288 ft 450 kts 108°
2026-05-06 16:59 32.47347 -111.45757 19541 ft 434 kts 108°
2026-05-06 16:59 32.46485 -111.42348 18872 ft 417 kts 107°
2026-05-06 16:59 32.45661 -111.39099 18725 ft 389 kts 108°
2026-05-06 17:00 32.44905 -111.36120 18647 ft 353 kts 108°
2026-05-06 17:00 32.44172 -111.33460 18054 ft 323 kts 118°
2026-05-06 17:00 32.42996 -111.31289 17347 ft 305 kts 131°
2026-05-06 17:00 32.41623 -111.29433 16632 ft 291 kts 138°
2026-05-06 17:01 32.40193 -111.27743 15896 ft 279 kts 137°
2026-05-06 17:01 32.38856 -111.26143 15181 ft 265 kts 136°
2026-05-06 17:01 32.37594 -111.24599 14454 ft 253 kts 135°
2026-05-06 17:01 32.36392 -111.23114 13738 ft 244 kts 135°
2026-05-06 17:02 32.35227 -111.21680 13008 ft 237 kts 134°
2026-05-06 17:02 32.34074 -111.20274 12275 ft 232 kts 135°
2026-05-06 17:02 32.32946 -111.18916 11545 ft 229 kts 135°
2026-05-06 17:02 32.31828 -111.17585 10817 ft 226 kts 135°
2026-05-06 17:03 32.30712 -111.16267 10080 ft 224 kts 135°
2026-05-06 17:03 32.29601 -111.14965 9343 ft 222 kts 135°
2026-05-06 17:03 32.28500 -111.13680 8608 ft 220 kts 135°
2026-05-06 17:03 32.27412 -111.12412 7938 ft 215 kts 134°
2026-05-06 17:04 32.26355 -111.11179 7366 ft 208 kts 134°
2026-05-06 17:04 32.25342 -111.09996 6880 ft 199 kts 134°
2026-05-06 17:04 32.24369 -111.08858 6405 ft 192 kts 133°
2026-05-06 17:04 32.23438 -111.07765 5914 ft 180 kts 133°
2026-05-06 17:05 32.22570 -111.06747 5447 ft 169 kts 133°
2026-05-06 17:05 32.21777 -111.05819 5212 ft 150 kts 134°
2026-05-06 17:05 32.21038 -111.04952 5018 ft 142 kts 134°
2026-05-06 17:05 32.20341 -111.04137 4831 ft 137 kts 134°
2026-05-06 17:06 32.19650 -111.03328 4643 ft 140 kts 134°
2026-05-06 17:06 32.18943 -111.02500 4445 ft 142 kts 134°
2026-05-06 17:06 32.18224 -111.01657 4240 ft 144 kts 135°
2026-05-06 17:06 32.17496 -111.00807 4035 ft 146 kts 135°
2026-05-06 17:07 32.16759 -110.99944 3827 ft 147 kts 135°
2026-05-06 17:07 32.16026 -110.99087 3621 ft 146 kts 135°
2026-05-06 17:07 32.15297 -110.98234 3422 ft 146 kts 135°
2026-05-06 17:07 32.14569 -110.97384 3226 ft 145 kts 135°
2026-05-06 17:08 32.13829 -110.96523 2994 ft 147 kts 135°
2026-05-06 17:08 32.13093 -110.95668 2797 ft 146 kts 135°
2026-05-06 17:08 32.12364 -110.94827 2637 ft 143 kts 135°
2026-05-06 17:08 32.11695 -110.94044 2611 ft 116 kts 134°
2026-05-06 17:09 32.11208 -110.93468 2627 ft 81 kts 135°
2026-05-06 17:09 32.10861 -110.93059 2638 ft 59 kts 135°
2026-05-06 17:09 32.10609 -110.92763 2646 ft 42 kts 135°
2026-05-06 17:09 32.10426 -110.92547 2654 ft 33 kts 135°
2026-05-06 17:10 32.10270 -110.92354 2661 ft 30 kts 115°
2026-05-06 17:10 32.10393 -110.92267 2662 ft 28 kts 316°
2026-05-06 17:10 32.10550 -110.92452 2655 ft 36 kts 315°
2026-05-06 17:10 32.10754 -110.92692 2646 ft 45 kts 315°
2026-05-06 17:11 32.11000 -110.92976 2638 ft 51 kts 316°
2026-05-06 17:11 32.11258 -110.93282 2630 ft 52 kts 315°
2026-05-06 17:11 32.11519 -110.93587 2622 ft 52 kts 315°
2026-05-06 17:11 32.11778 -110.93893 2614 ft 52 kts 315°
2026-05-06 17:12 32.12036 -110.94192 2604 ft 49 kts 315°
2026-05-06 17:12 32.12250 -110.94463 2595 ft 38 kts 324°
2026-05-06 17:12 32.12431 -110.94647 2589 ft 26 kts 328°
2026-05-06 17:12 32.12487 -110.94617 2588 ft 8 kts 108°
2026-05-06 17:13 32.12460 -110.94575 2588 ft 4 kts 135°
2026-05-06 17:13 32.12447 -110.94559 2589 ft 0 kts 136°